Location: Rounton
(54.4000°N, 1.3500°W)
Time: 13:18:00
(UTC+00:00)

Transit 2A Rocket - Pass Details

Date: 09 December 2021
Orbit: 584 x 918 km, 66.7° (Epoch: 17 January)

Event Time Altitude Azimuth Distance (km) Brightness Sun altitude
Rises 07:55:12 0° 235° (SW) 3,413 8.2 -3.0°
Reaches altitude 10° 07:57:38 10° 239° (WSW) 2,518 7.5 -2.7°
Maximum altitude 08:03:29 61° 319° (NW) 1,023 5.4 -2.1°
Drops below altitude 10° 08:09:36 10° 40° (NE) 2,623 7.8 -1.4°
Sets 08:12:11 0° 44° (NE) 3,565 8.5 -1.1°
